P/2014 W12 ( Gibbs ) 2021

Japanese version
Home page
Updated on May 18, 2020

---------------------------------------------------------------------

* Profile

* Orbital Elements

Epoch 2021 July 5.0 TT = JDT 2459400.5
T 2021 June 19.24621 TT                                 MPCW
q   1.6746650            (2000.0)            P               Q
n   0.14925848     Peri.   36.86731     +0.90888821     +0.39655005
a   3.5197355      Node   299.28929     -0.40917817     +0.78811109
e   0.5242071      Incl.    8.51328     -0.08059439     +0.47077486
P   6.60
From 67 observations 2014 Nov. 30-2015 Jan. 7, mean residual 0".5.

* Finding Charts

* Magnitudes Graph

        m1 = 14.0 + 5 log d + 10.0 log r

---------------------------------------------------------------------

The orbital elements are published on M.P.E.C. 2015-G03.
The charts are made with StellaNavigator Ver.10 (AstroArts).
The magnitudes graphs are made with Comet for Windows.

---------------------------------------------------------------------

Copyright(C) Seiichi Yoshida (comet@aerith.net). All rights reserved.